contact:dominique.lefevre@mio.osupytheas.fr, maurice.libes@osupytheas.fr, didier.mallarino@osupytheas.fr
Project:EMSO http://www.emso-fr.org/EMSO-France
Depth: 2436.0 m
Title:EMSO Ligure Ouest : Data MII capteur CSTAR
DateTime,Latitude,Longitude,Instrument_Serial,Reference_Counts,Signal_Counts,Corrected_Signal_raw_counts,Calculated_Beam_c_inverse_meters,Internal_thermistor_counts
DateTime,Latitude,Longitude,Instrument_Serial,Reference_Counts,Signal_Counts,Corrected_Signal_raw_counts,Calculated_Beam_c_inverse_meters,Internal_thermistor_counts
2019-10-22T00:02:03,42.805,6.029,CST-1368DR,7546,10571,15334,0.073,550
2019-10-22T00:05:05,42.805,6.029,CST-1368DR,7547,10571,15332,0.073,551
2019-10-22T00:08:06,42.805,6.029,CST-1368DR,7546,10571,15334,0.073,551
2019-10-22T00:11:08,42.805,6.029,CST-1368DR,7546,10572,15336,0.072,551
2019-10-22T00:14:09,42.805,6.029,CST-1368DR,7546,10571,15335,0.073,551
2019-10-22T00:17:11,42.805,6.029,CST-1368DR,7546,10572,15335,0.073,551
2019-10-22T00:20:13,42.805,6.029,CST-1368DR,7546,10570,15333,0.073,551
2019-10-22T00:23:15,42.805,6.029,CST-1368DR,7546,10570,15333,0.073,551
2019-10-22T00:26:16,42.805,6.029,CST-1368DR,7546,10570,15333,0.073,551
2019-10-22T00:29:18,42.805,6.029,CST-1368DR,7546,10570,15332,0.073,551
2019-10-22T00:32:19,42.805,6.029,CST-1368DR,7546,10571,15335,0.073,551
2019-10-22T00:35:21,42.805,6.029,CST-1368DR,7546,10570,15332,0.073,551
2019-10-22T00:38:23,42.805,6.029,CST-1368DR,7546,10570,15333,0.073,551
2019-10-22T00:41:24,42.805,6.029,CST-1368DR,7546,10570,15333,0.073,551
2019-10-22T00:44:26,42.805,6.029,CST-1368DR,7546,10568,15330,0.074,551
2019-10-22T00:47:28,42.805,6.029,CST-1368DR,7546,10570,15333,0.073,551
2019-10-22T00:50:29,42.805,6.029,CST-1368DR,7546,10570,15333,0.073,551
2019-10-22T00:53:31,42.805,6.029,CST-1368DR,7546,10569,15332,0.073,551
2019-10-22T00:56:33,42.805,6.029,CST-1368DR,7546,10570,15333,0.073,551
2019-10-22T00:59:34,42.805,6.029,CST-1368DR,7546,10570,15333,0.073,551
2019-10-22T01:02:36,42.805,6.029,CST-1368DR,7546,10570,15333,0.073,551
2019-10-22T01:05:38,42.805,6.029,CST-1368DR,7546,10571,15334,0.073,551
2019-10-22T01:08:39,42.805,6.029,CST-1368DR,7546,10570,15333,0.073,551
2019-10-22T01:11:41,42.805,6.029,CST-1368DR,7546,10570,15333,0.073,551
2019-10-22T01:14:43,42.805,6.029,CST-1368DR,7546,10571,15334,0.073,551
2019-10-22T01:17:44,42.805,6.029,CST-1368DR,7546,10571,15334,0.073,551
2019-10-22T01:20:46,42.805,6.029,CST-1368DR,7546,10570,15333,0.073,551
2019-10-22T01:23:48,42.805,6.029,CST-1368DR,7546,10570,15333,0.073,551
2019-10-22T01:26:49,42.805,6.029,CST-1368DR,7546,10570,15332,0.073,550
2019-10-22T01:29:51,42.805,6.029,CST-1368DR,7546,10569,15332,0.073,551
2019-10-22T01:32:53,42.805,6.029,CST-1368DR,7546,10571,15334,0.073,551
2019-10-22T01:35:54,42.805,6.029,CST-1368DR,7546,10570,15332,0.073,551
2019-10-22T01:38:56,42.805,6.029,CST-1368DR,7546,10571,15334,0.073,551
2019-10-22T01:41:58,42.805,6.029,CST-1368DR,7546,10570,15332,0.073,551
2019-10-22T01:44:59,42.805,6.029,CST-1368DR,7546,10570,15333,0.073,551
2019-10-22T01:48:01,42.805,6.029,CST-1368DR,7546,10567,15328,0.074,551
2019-10-22T01:51:03,42.805,6.029,CST-1368DR,7546,10569,15331,0.074,551
2019-10-22T01:54:04,42.805,6.029,CST-1368DR,7546,10569,15332,0.073,551
2019-10-22T01:57:06,42.805,6.029,CST-1368DR,7546,10569,15331,0.074,551
2019-10-22T02:00:07,42.805,6.029,CST-1368DR,7546,10569,15331,0.074,551
2019-10-22T02:03:09,42.805,6.029,CST-1368DR,7546,10570,15332,0.073,551
2019-10-22T02:06:11,42.805,6.029,CST-1368DR,7546,10569,15331,0.074,550
2019-10-22T02:09:12,42.805,6.029,CST-1368DR,7546,10567,15329,0.074,551
2019-10-22T02:12:14,42.805,6.029,CST-1368DR,7546,10569,15331,0.074,551
2019-10-22T02:15:16,42.805,6.029,CST-1368DR,7546,10569,15332,0.073,550
2019-10-22T02:18:17,42.805,6.029,CST-1368DR,7546,10567,15328,0.074,551
2019-10-22T02:21:19,42.805,6.029,CST-1368DR,7546,10569,15332,0.073,551
2019-10-22T02:24:21,42.805,6.029,CST-1368DR,7546,10569,15331,0.074,551
2019-10-22T02:27:22,42.805,6.029,CST-1368DR,7546,10570,15332,0.073,551
2019-10-22T02:30:24,42.805,6.029,CST-1368DR,7546,10569,15332,0.073,551
2019-10-22T02:33:26,42.805,6.029,CST-1368DR,7546,10566,15327,0.075,551
2019-10-22T02:36:27,42.805,6.029,CST-1368DR,7546,10569,15331,0.074,551
2019-10-22T02:39:29,42.805,6.029,CST-1368DR,7546,10570,15333,0.073,551
2019-10-22T02:42:30,42.805,6.029,CST-1368DR,7545,10568,15332,0.073,551
2019-10-22T02:45:32,42.805,6.029,CST-1368DR,7546,10563,15323,0.076,551
2019-10-22T02:48:34,42.805,6.029,CST-1368DR,7545,10568,15332,0.073,551
2019-10-22T02:51:35,42.805,6.029,CST-1368DR,7545,10568,15332,0.073,551
2019-10-22T02:54:37,42.805,6.029,CST-1368DR,7545,10569,15333,0.073,551
2019-10-22T02:57:39,42.805,6.029,CST-1368DR,7545,10568,15332,0.073,551
2019-10-22T03:00:40,42.805,6.029,CST-1368DR,7545,10569,15333,0.073,551
2019-10-22T03:03:42,42.805,6.029,CST-1368DR,7545,10570,15335,0.073,551
2019-10-22T03:06:44,42.805,6.029,CST-1368DR,7545,10566,15329,0.074,550
2019-10-22T03:09:45,42.805,6.029,CST-1368DR,7545,10568,15331,0.074,551
2019-10-22T03:12:47,42.805,6.029,CST-1368DR,7545,10569,15333,0.073,551
2019-10-22T03:15:49,42.805,6.029,CST-1368DR,7545,10568,15332,0.073,551
2019-10-22T03:18:50,42.805,6.029,CST-1368DR,7545,10566,15329,0.074,551
2019-10-22T03:21:52,42.805,6.029,CST-1368DR,7545,10569,15334,0.073,551
2019-10-22T03:24:53,42.805,6.029,CST-1368DR,7545,10570,15334,0.073,551
2019-10-22T03:27:55,42.805,6.029,CST-1368DR,7545,10569,15333,0.073,551
2019-10-22T03:30:57,42.805,6.029,CST-1368DR,7545,10570,15334,0.073,550
2019-10-22T03:33:58,42.805,6.029,CST-1368DR,7545,10569,15333,0.073,551
2019-10-22T03:37:00,42.805,6.029,CST-1368DR,7545,10569,15333,0.073,551
2019-10-22T03:40:02,42.805,6.029,CST-1368DR,7545,10570,15335,0.073,551
2019-10-22T03:43:03,42.805,6.029,CST-1368DR,7545,10568,15332,0.073,550
2019-10-22T03:46:05,42.805,6.029,CST-1368DR,7545,10569,15333,0.073,551
2019-10-22T03:49:07,42.805,6.029,CST-1368DR,7545,10568,15332,0.073,551
2019-10-22T03:52:08,42.805,6.029,CST-1368DR,7545,10566,15329,0.074,550
2019-10-22T03:55:10,42.805,6.029,CST-1368DR,7545,10569,15334,0.073,551
2019-10-22T03:58:12,42.805,6.029,CST-1368DR,7545,10569,15333,0.073,551
2019-10-22T04:01:13,42.805,6.029,CST-1368DR,7545,10571,15336,0.072,551
2019-10-22T04:04:15,42.805,6.029,CST-1368DR,7545,10569,15333,0.073,551
2019-10-22T04:07:16,42.805,6.029,CST-1368DR,7545,10569,15333,0.073,551
2019-10-22T04:10:18,42.805,6.029,CST-1368DR,7545,10568,15332,0.073,551
2019-10-22T04:13:20,42.805,6.029,CST-1368DR,7545,10569,15334,0.073,551
2019-10-22T04:16:22,42.805,6.029,CST-1368DR,7545,10568,15332,0.073,550
2019-10-22T04:19:23,42.805,6.029,CST-1368DR,7545,10569,15333,0.073,551
2019-10-22T04:22:25,42.805,6.029,CST-1368DR,7545,10569,15333,0.073,550
2019-10-22T04:25:27,42.805,6.029,CST-1368DR,7545,10569,15333,0.073,551
2019-10-22T04:28:28,42.805,6.029,CST-1368DR,7545,10569,15333,0.073,550
2019-10-22T04:31:30,42.805,6.029,CST-1368DR,7545,10569,15333,0.073,551
2019-10-22T04:34:32,42.805,6.029,CST-1368DR,7545,10569,15333,0.073,551
2019-10-22T04:37:33,42.805,6.029,CST-1368DR,7545,10567,15330,0.074,551
2019-10-22T04:40:35,42.805,6.029,CST-1368DR,7545,10568,15332,0.073,551
2019-10-22T04:43:36,42.805,6.029,CST-1368DR,7545,10569,15334,0.073,551
2019-10-22T04:46:38,42.805,6.029,CST-1368DR,7545,10570,15334,0.073,551
2019-10-22T04:49:40,42.805,6.029,CST-1368DR,7545,10566,15329,0.074,551
2019-10-22T04:52:41,42.805,6.029,CST-1368DR,7545,10569,15334,0.073,551
2019-10-22T04:55:43,42.805,6.029,CST-1368DR,7545,10569,15333,0.073,551
2019-10-22T04:58:45,42.805,6.029,CST-1368DR,7545,10569,15333,0.073,551
2019-10-22T05:01:46,42.805,6.029,CST-1368DR,7545,10569,15333,0.073,551
2019-10-22T05:04:48,42.805,6.029,CST-1368DR,7545,10569,15333,0.073,551
2019-10-22T05:07:50,42.805,6.029,CST-1368DR,7545,10567,15331,0.074,551
2019-10-22T05:10:51,42.805,6.029,CST-1368DR,7545,10569,15333,0.073,551
2019-10-22T05:13:53,42.805,6.029,CST-1368DR,7545,10569,15334,0.073,550
2019-10-22T05:16:55,42.805,6.029,CST-1368DR,7545,10568,15332,0.073,551
2019-10-22T05:19:56,42.805,6.029,CST-1368DR,7545,10564,15327,0.075,551
2019-10-22T05:22:58,42.805,6.029,CST-1368DR,7545,10567,15331,0.074,551
2019-10-22T05:25:59,42.805,6.029,CST-1368DR,7545,10568,15332,0.073,551
2019-10-22T05:29:01,42.805,6.029,CST-1368DR,7545,10568,15332,0.073,551
2019-10-22T05:32:03,42.805,6.029,CST-1368DR,7545,10568,15332,0.073,551
2019-10-22T05:35:04,42.805,6.029,CST-1368DR,7545,10568,15332,0.073,551
2019-10-22T05:38:06,42.805,6.029,CST-1368DR,7545,10568,15331,0.074,551
2019-10-22T05:41:08,42.805,6.029,CST-1368DR,7545,10568,15332,0.073,551
2019-10-22T05:44:10,42.805,6.029,CST-1368DR,7545,10566,15329,0.074,551
2019-10-22T05:47:11,42.805,6.029,CST-1368DR,7545,10569,15333,0.073,551
2019-10-22T05:50:13,42.805,6.029,CST-1368DR,7545,10568,15332,0.073,551
2019-10-22T05:53:15,42.805,6.029,CST-1368DR,7545,10565,15327,0.075,551
2019-10-22T05:56:16,42.805,6.029,CST-1368DR,7545,10566,15329,0.074,551
2019-10-22T05:59:18,42.805,6.029,CST-1368DR,7545,10566,15329,0.074,551
2019-10-22T06:02:19,42.805,6.029,CST-1368DR,7545,10567,15331,0.074,551
2019-10-22T06:05:21,42.805,6.029,CST-1368DR,7545,10568,15332,0.073,551
2019-10-22T06:08:23,42.805,6.029,CST-1368DR,7545,10569,15333,0.073,551
2019-10-22T06:11:24,42.805,6.029,CST-1368DR,7545,10567,15331,0.074,551
2019-10-22T06:14:26,42.805,6.029,CST-1368DR,7545,10568,15332,0.073,551
2019-10-22T06:17:28,42.805,6.029,CST-1368DR,7545,10568,15332,0.073,550
2019-10-22T06:20:29,42.805,6.029,CST-1368DR,7545,10567,15331,0.074,550
2019-10-22T06:23:31,42.805,6.029,CST-1368DR,7545,10567,15331,0.074,551
2019-10-22T06:26:33,42.805,6.029,CST-1368DR,7544,10567,15333,0.073,551
2019-10-22T06:29:34,42.805,6.029,CST-1368DR,7544,10566,15331,0.074,551
2019-10-22T06:32:36,42.805,6.029,CST-1368DR,7545,10567,15331,0.074,551
2019-10-22T06:35:38,42.805,6.029,CST-1368DR,7545,10569,15333,0.073,551
2019-10-22T06:38:40,42.805,6.029,CST-1368DR,7544,10567,15332,0.073,550
2019-10-22T06:41:41,42.805,6.029,CST-1368DR,7544,10568,15334,0.073,551
2019-10-22T06:44:43,42.805,6.029,CST-1368DR,7544,10565,15329,0.074,551
2019-10-22T06:47:45,42.805,6.029,CST-1368DR,7544,10567,15332,0.073,551
2019-10-22T06:50:46,42.805,6.029,CST-1368DR,7544,10567,15332,0.073,551
2019-10-22T06:53:48,42.805,6.029,CST-1368DR,7544,10565,15329,0.074,551
2019-10-22T06:56:50,42.805,6.029,CST-1368DR,7544,10567,15332,0.073,551
2019-10-22T06:59:52,42.805,6.029,CST-1368DR,7544,10568,15334,0.073,551
2019-10-22T07:02:53,42.805,6.029,CST-1368DR,7544,10567,15332,0.073,551
2019-10-22T07:05:55,42.805,6.029,CST-1368DR,7544,10568,15334,0.073,551
2019-10-22T07:08:56,42.805,6.029,CST-1368DR,7544,10568,15334,0.073,551
2019-10-22T07:11:58,42.805,6.029,CST-1368DR,7544,10566,15331,0.074,551
2019-10-22T07:15:00,42.805,6.029,CST-1368DR,7544,10568,15334,0.073,551
2019-10-22T07:18:01,42.805,6.029,CST-1368DR,7544,10568,15334,0.073,551
2019-10-22T07:21:03,42.805,6.029,CST-1368DR,7544,10568,15334,0.073,551
2019-10-22T07:24:05,42.805,6.029,CST-1368DR,7544,10568,15333,0.073,551
2019-10-22T07:27:06,42.805,6.029,CST-1368DR,7544,10568,15334,0.073,551
2019-10-22T07:30:08,42.805,6.029,CST-1368DR,7544,10568,15334,0.073,551
2019-10-22T07:33:10,42.805,6.029,CST-1368DR,7544,10566,15331,0.074,551
2019-10-22T07:36:11,42.805,6.029,CST-1368DR,7544,10566,15331,0.074,551
2019-10-22T07:39:13,42.805,6.029,CST-1368DR,7544,10567,15333,0.073,551
2019-10-22T07:42:15,42.805,6.029,CST-1368DR,7544,10567,15332,0.073,551
2019-10-22T07:45:16,42.805,6.029,CST-1368DR,7544,10567,15333,0.073,551
2019-10-22T07:48:18,42.805,6.029,CST-1368DR,7544,10567,15332,0.073,551
2019-10-22T07:51:19,42.805,6.029,CST-1368DR,7544,10566,15331,0.074,551
2019-10-22T07:54:21,42.805,6.029,CST-1368DR,7544,10566,15331,0.074,550
2019-10-22T07:57:23,42.805,6.029,CST-1368DR,7544,10567,15332,0.073,551
2019-10-22T08:00:24,42.805,6.029,CST-1368DR,7544,10566,15331,0.074,551
2019-10-22T08:03:26,42.805,6.029,CST-1368DR,7544,10567,15332,0.073,551
2019-10-22T08:06:28,42.805,6.029,CST-1368DR,7544,10567,15332,0.073,551
2019-10-22T08:09:29,42.805,6.029,CST-1368DR,7544,10567,15332,0.073,551
2019-10-22T08:12:31,42.805,6.029,CST-1368DR,7544,10551,15310,0.079,551
2019-10-22T08:15:33,42.805,6.029,CST-1368DR,7544,10563,15326,0.075,551
2019-10-22T08:18:34,42.805,6.029,CST-1368DR,7544,10568,15333,0.073,551
2019-10-22T08:21:36,42.805,6.029,CST-1368DR,7544,10568,15334,0.073,551
2019-10-22T08:24:38,42.805,6.029,CST-1368DR,7544,10567,15333,0.073,550
2019-10-22T08:27:39,42.805,6.029,CST-1368DR,7544,10566,15331,0.074,551
2019-10-22T08:30:41,42.805,6.029,CST-1368DR,7544,10567,15333,0.073,551
2019-10-22T08:33:42,42.805,6.029,CST-1368DR,7544,10567,15333,0.073,551
2019-10-22T08:36:44,42.805,6.029,CST-1368DR,7544,10567,15332,0.073,551
2019-10-22T08:39:46,42.805,6.029,CST-1368DR,7544,10566,15331,0.074,551
2019-10-22T08:42:47,42.805,6.029,CST-1368DR,7544,10567,15333,0.073,551
2019-10-22T08:45:49,42.805,6.029,CST-1368DR,7544,10568,15333,0.073,551
2019-10-22T08:48:51,42.805,6.029,CST-1368DR,7544,10566,15331,0.074,550
2019-10-22T08:51:52,42.805,6.029,CST-1368DR,7544,10566,15331,0.074,551
2019-10-22T08:54:54,42.805,6.029,CST-1368DR,7544,10568,15334,0.073,551
2019-10-22T08:57:56,42.805,6.029,CST-1368DR,7544,10567,15332,0.073,551
2019-10-22T09:00:57,42.805,6.029,CST-1368DR,7544,10565,15330,0.074,551
2019-10-22T09:03:59,42.805,6.029,CST-1368DR,7544,10567,15333,0.073,551
2019-10-22T09:07:00,42.805,6.029,CST-1368DR,7544,10568,15333,0.073,551
2019-10-22T09:10:02,42.805,6.029,CST-1368DR,7544,10566,15331,0.074,551
2019-10-22T09:13:04,42.805,6.029,CST-1368DR,7544,10568,15333,0.073,551
2019-10-22T09:16:05,42.805,6.029,CST-1368DR,7544,10566,15331,0.074,551
2019-10-22T09:19:07,42.805,6.029,CST-1368DR,7544,10568,15334,0.073,551
2019-10-22T09:22:09,42.805,6.029,CST-1368DR,7544,10566,15331,0.074,551
2019-10-22T09:25:10,42.805,6.029,CST-1368DR,7544,10568,15333,0.073,551
2019-10-22T09:28:12,42.805,6.029,CST-1368DR,7544,10565,15330,0.074,551
2019-10-22T09:31:14,42.805,6.029,CST-1368DR,7544,10568,15333,0.073,551
2019-10-22T09:34:16,42.805,6.029,CST-1368DR,7544,10566,15331,0.074,551
2019-10-22T09:37:17,42.805,6.029,CST-1368DR,7544,10567,15333,0.073,551
2019-10-22T09:40:19,42.805,6.029,CST-1368DR,7544,10568,15333,0.073,551
2019-10-22T09:43:20,42.805,6.029,CST-1368DR,7543,10568,15336,0.072,551
2019-10-22T09:46:22,42.805,6.029,CST-1368DR,7544,10568,15334,0.073,551
2019-10-22T09:49:24,42.805,6.029,CST-1368DR,7543,10566,15332,0.073,551
2019-10-22T09:52:25,42.805,6.029,CST-1368DR,7543,10566,15333,0.073,551
2019-10-22T09:55:27,42.805,6.029,CST-1368DR,7543,10567,15334,0.073,551
2019-10-22T09:58:29,42.805,6.029,CST-1368DR,7543,10567,15334,0.073,551
2019-10-22T10:01:30,42.805,6.029,CST-1368DR,7543,10566,15333,0.073,551
2019-10-22T10:04:32,42.805,6.029,CST-1368DR,7543,10568,15335,0.073,551
2019-10-22T10:07:34,42.805,6.029,CST-1368DR,7543,10566,15333,0.073,551
2019-10-22T10:10:36,42.805,6.029,CST-1368DR,7543,10568,15335,0.073,551
2019-10-22T10:13:37,42.805,6.029,CST-1368DR,7543,10567,15335,0.073,551
2019-10-22T10:16:39,42.805,6.029,CST-1368DR,7543,10568,15335,0.073,551
2019-10-22T10:19:41,42.805,6.029,CST-1368DR,7543,10566,15333,0.073,551
2019-10-22T10:22:43,42.805,6.029,CST-1368DR,7543,10567,15334,0.073,551
2019-10-22T10:25:44,42.805,6.029,CST-1368DR,7543,10566,15333,0.073,551
2019-10-22T10:28:46,42.805,6.029,CST-1368DR,7543,10567,15334,0.073,551
2019-10-22T10:31:47,42.805,6.029,CST-1368DR,7543,10566,15332,0.073,551
2019-10-22T10:34:49,42.805,6.029,CST-1368DR,7543,10567,15334,0.073,551
2019-10-22T10:37:51,42.805,6.029,CST-1368DR,7543,10568,15335,0.073,551
2019-10-22T10:40:52,42.805,6.029,CST-1368DR,7543,10568,15335,0.073,551
2019-10-22T10:43:54,42.805,6.029,CST-1368DR,7543,10567,15334,0.073,551
2019-10-22T10:46:56,42.805,6.029,CST-1368DR,7543,10565,15331,0.074,551
2019-10-22T10:49:58,42.805,6.029,CST-1368DR,7543,10566,15333,0.073,551
2019-10-22T10:53:00,42.805,6.029,CST-1368DR,7543,10566,15332,0.073,551
2019-10-22T10:56:01,42.805,6.029,CST-1368DR,7543,10566,15333,0.073,551
2019-10-22T10:59:03,42.805,6.029,CST-1368DR,7543,10566,15333,0.073,551
2019-10-22T11:02:05,42.805,6.029,CST-1368DR,7543,10567,15334,0.073,551
2019-10-22T11:05:06,42.805,6.029,CST-1368DR,7543,10567,15334,0.073,551
2019-10-22T11:08:08,42.805,6.029,CST-1368DR,7543,10567,15335,0.073,551
2019-10-22T11:11:10,42.805,6.029,CST-1368DR,7543,10566,15333,0.073,551
2019-10-22T11:14:11,42.805,6.029,CST-1368DR,7543,10566,15333,0.073,551
2019-10-22T11:17:13,42.805,6.029,CST-1368DR,7543,10563,15329,0.074,551
2019-10-22T11:20:14,42.805,6.029,CST-1368DR,7543,10566,15332,0.073,551
2019-10-22T11:23:16,42.805,6.029,CST-1368DR,7543,10566,15333,0.073,551
2019-10-22T11:26:18,42.805,6.029,CST-1368DR,7543,10567,15334,0.073,551
2019-10-22T11:29:19,42.805,6.029,CST-1368DR,7543,10566,15333,0.073,551
2019-10-22T11:32:21,42.805,6.029,CST-1368DR,7543,10567,15334,0.073,551
2019-10-22T11:35:23,42.805,6.029,CST-1368DR,7543,10566,15332,0.073,551
2019-10-22T11:38:24,42.805,6.029,CST-1368DR,7543,10566,15333,0.073,550
2019-10-22T11:41:26,42.805,6.029,CST-1368DR,7543,10566,15332,0.073,551
2019-10-22T11:44:28,42.805,6.029,CST-1368DR,7543,10566,15332,0.073,551
2019-10-22T11:47:29,42.805,6.029,CST-1368DR,7543,10563,15328,0.074,551
2019-10-22T11:50:31,42.805,6.029,CST-1368DR,7543,10567,15334,0.073,551
2019-10-22T11:53:33,42.805,6.029,CST-1368DR,7543,10566,15333,0.073,551
2019-10-22T11:56:34,42.805,6.029,CST-1368DR,7543,10561,15326,0.075,551
2019-10-22T11:59:36,42.805,6.029,CST-1368DR,7543,10566,15333,0.073,551
2019-10-22T12:02:37,42.805,6.029,CST-1368DR,7543,10565,15332,0.073,551
2019-10-22T12:05:39,42.805,6.029,CST-1368DR,7543,10566,15332,0.073,551
2019-10-22T12:08:41,42.805,6.029,CST-1368DR,7543,10562,15327,0.075,551
2019-10-22T12:11:42,42.805,6.029,CST-1368DR,7543,10567,15334,0.073,551
2019-10-22T12:14:44,42.805,6.029,CST-1368DR,7543,10565,15332,0.073,551
2019-10-22T12:17:46,42.805,6.029,CST-1368DR,7543,10566,15332,0.073,551
2019-10-22T12:20:47,42.805,6.029,CST-1368DR,7543,10566,15333,0.073,551
2019-10-22T12:23:49,42.805,6.029,CST-1368DR,7543,10566,15333,0.073,551
2019-10-22T12:26:51,42.805,6.029,CST-1368DR,7543,10564,15330,0.074,551
2019-10-22T12:29:52,42.805,6.029,CST-1368DR,7543,10566,15333,0.073,550
2019-10-22T12:32:54,42.805,6.029,CST-1368DR,7543,10564,15330,0.074,551
2019-10-22T12:35:56,42.805,6.029,CST-1368DR,7543,10566,15333,0.073,551
2019-10-22T12:38:57,42.805,6.029,CST-1368DR,7543,10567,15335,0.073,551
2019-10-22T12:41:59,42.805,6.029,CST-1368DR,7543,10566,15333,0.073,551
2019-10-22T12:45:01,42.805,6.029,CST-1368DR,7543,10566,15333,0.073,551
2019-10-22T12:48:02,42.805,6.029,CST-1368DR,7543,10566,15332,0.073,551
2019-10-22T12:51:04,42.805,6.029,CST-1368DR,7542,10565,15333,0.073,551
2019-10-22T12:54:05,42.805,6.029,CST-1368DR,7542,10566,15334,0.073,551
2019-10-22T12:57:07,42.805,6.029,CST-1368DR,7542,10564,15332,0.073,551
2019-10-22T13:00:09,42.805,6.029,CST-1368DR,7543,10566,15333,0.073,551
2019-10-22T13:03:10,42.805,6.029,CST-1368DR,7542,10566,15334,0.073,551
2019-10-22T13:06:12,42.805,6.029,CST-1368DR,7543,10564,15330,0.074,551
2019-10-22T13:09:14,42.805,6.029,CST-1368DR,7543,10567,15334,0.073,551
2019-10-22T13:12:15,42.805,6.029,CST-1368DR,7543,10566,15333,0.073,551
2019-10-22T13:15:17,42.805,6.029,CST-1368DR,7543,10566,15333,0.073,550
2019-10-22T13:18:19,42.805,6.029,CST-1368DR,7542,10567,15337,0.072,551
2019-10-22T13:21:20,42.805,6.029,CST-1368DR,7542,10567,15337,0.072,551
2019-10-22T13:24:22,42.805,6.029,CST-1368DR,7542,10566,15334,0.073,550
2019-10-22T13:27:23,42.805,6.029,CST-1368DR,7542,10565,15333,0.073,551
2019-10-22T13:30:25,42.805,6.029,CST-1368DR,7542,10565,15334,0.073,551
2019-10-22T13:33:27,42.805,6.029,CST-1368DR,7542,10565,15333,0.073,551
2019-10-22T13:36:28,42.805,6.029,CST-1368DR,7542,10565,15333,0.073,551
2019-10-22T13:39:30,42.805,6.029,CST-1368DR,7542,10566,15335,0.073,551
2019-10-22T13:42:32,42.805,6.029,CST-1368DR,7542,10562,15329,0.074,551
2019-10-22T13:45:33,42.805,6.029,CST-1368DR,7542,10564,15332,0.073,551
2019-10-22T13:48:35,42.805,6.029,CST-1368DR,7542,10563,15331,0.074,551
2019-10-22T13:51:37,42.805,6.029,CST-1368DR,7542,10564,15332,0.073,551
2019-10-22T13:54:38,42.805,6.029,CST-1368DR,7542,10565,15334,0.073,551
2019-10-22T13:57:40,42.805,6.029,CST-1368DR,7542,10565,15333,0.073,551
2019-10-22T14:00:41,42.805,6.029,CST-1368DR,7542,10565,15334,0.073,551
2019-10-22T14:03:43,42.805,6.029,CST-1368DR,7542,10564,15332,0.073,550
2019-10-22T14:06:45,42.805,6.029,CST-1368DR,7542,10563,15330,0.074,551
2019-10-22T14:09:46,42.805,6.029,CST-1368DR,7542,10564,15332,0.073,550
2019-10-22T14:12:48,42.805,6.029,CST-1368DR,7542,10565,15333,0.073,551
2019-10-22T14:15:50,42.805,6.029,CST-1368DR,7542,10565,15334,0.073,551
2019-10-22T14:18:51,42.805,6.029,CST-1368DR,7542,10565,15333,0.073,551
2019-10-22T14:21:53,42.805,6.029,CST-1368DR,7542,10564,15332,0.073,551
2019-10-22T14:24:55,42.805,6.029,CST-1368DR,7542,10564,15332,0.073,551
2019-10-22T14:27:56,42.805,6.029,CST-1368DR,7542,10565,15333,0.073,551
2019-10-22T14:30:58,42.805,6.029,CST-1368DR,7542,10563,15331,0.074,551
2019-10-22T14:34:00,42.805,6.029,CST-1368DR,7542,10564,15332,0.073,551
2019-10-22T14:37:01,42.805,6.029,CST-1368DR,7542,10564,15332,0.073,551
2019-10-22T14:40:03,42.805,6.029,CST-1368DR,7542,10564,15332,0.073,551
2019-10-22T14:43:04,42.805,6.029,CST-1368DR,7542,10565,15333,0.073,551
2019-10-22T14:46:06,42.805,6.029,CST-1368DR,7542,10565,15333,0.073,551
2019-10-22T14:49:08,42.805,6.029,CST-1368DR,7542,10564,15332,0.073,551
2019-10-22T14:52:09,42.805,6.029,CST-1368DR,7542,10565,15333,0.073,551
2019-10-22T14:55:11,42.805,6.029,CST-1368DR,7542,10564,15331,0.074,551
2019-10-22T14:58:13,42.805,6.029,CST-1368DR,7542,10565,15333,0.073,551
2019-10-22T15:01:14,42.805,6.029,CST-1368DR,7542,10565,15333,0.073,551
2019-10-22T15:04:16,42.805,6.029,CST-1368DR,7542,10562,15329,0.074,551
2019-10-22T15:07:18,42.805,6.029,CST-1368DR,7542,10565,15333,0.073,551
2019-10-22T15:10:19,42.805,6.029,CST-1368DR,7542,10564,15331,0.074,551
2019-10-22T15:13:21,42.805,6.029,CST-1368DR,7542,10565,15333,0.073,551
2019-10-22T15:16:23,42.805,6.029,CST-1368DR,7542,10565,15333,0.073,551
2019-10-22T15:19:24,42.805,6.029,CST-1368DR,7542,10564,15332,0.073,551
2019-10-22T15:22:26,42.805,6.029,CST-1368DR,7542,10565,15333,0.073,551
2019-10-22T15:25:27,42.805,6.029,CST-1368DR,7541,10564,15334,0.073,551
2019-10-22T15:28:29,42.805,6.029,CST-1368DR,7541,10564,15333,0.073,551
2019-10-22T15:31:31,42.805,6.029,CST-1368DR,7541,10565,15335,0.073,551
2019-10-22T15:34:32,42.805,6.029,CST-1368DR,7541,10565,15335,0.073,551
2019-10-22T15:37:34,42.805,6.029,CST-1368DR,7541,10565,15335,0.073,551
2019-10-22T15:40:36,42.805,6.029,CST-1368DR,7541,10564,15334,0.073,551
2019-10-22T15:43:37,42.805,6.029,CST-1368DR,7541,10565,15335,0.073,551
2019-10-22T15:46:39,42.805,6.029,CST-1368DR,7541,10565,15335,0.073,551
2019-10-22T15:49:40,42.805,6.029,CST-1368DR,7541,10565,15336,0.072,551
2019-10-22T15:52:42,42.805,6.029,CST-1368DR,7541,10564,15333,0.073,551
2019-10-22T15:55:44,42.805,6.029,CST-1368DR,7541,10563,15332,0.073,551
2019-10-22T15:58:45,42.805,6.029,CST-1368DR,7541,10564,15334,0.073,551
2019-10-22T16:01:47,42.805,6.029,CST-1368DR,7541,10565,15335,0.073,551
2019-10-22T16:04:49,42.805,6.029,CST-1368DR,7541,10564,15334,0.073,550
2019-10-22T16:07:50,42.805,6.029,CST-1368DR,7541,10565,15335,0.073,550
2019-10-22T16:10:52,42.805,6.029,CST-1368DR,7541,10565,15336,0.072,551
2019-10-22T16:13:54,42.805,6.029,CST-1368DR,7541,10564,15334,0.073,551
2019-10-22T16:16:55,42.805,6.029,CST-1368DR,7541,10562,15331,0.074,551
2019-10-22T16:19:57,42.805,6.029,CST-1368DR,7541,10564,15334,0.073,551
2019-10-22T16:22:59,42.805,6.029,CST-1368DR,7541,10562,15331,0.074,550
2019-10-22T16:26:00,42.805,6.029,CST-1368DR,7541,10565,15335,0.073,551
2019-10-22T16:29:02,42.805,6.029,CST-1368DR,7541,10564,15333,0.073,551
2019-10-22T16:32:03,42.805,6.029,CST-1368DR,7541,10565,15335,0.073,551
2019-10-22T16:35:05,42.805,6.029,CST-1368DR,7541,10562,15330,0.074,551
2019-10-22T16:38:07,42.805,6.029,CST-1368DR,7541,10564,15333,0.073,551